Location: Orange Harbor Mobile Home Park
(26.6923°N, 81.7937°W)
Time: 07:56:43
(UTC+00:00)

Iridium 4 Rocket - Pass Details

Date: 19 September 2020
Orbit: 584 x 905 km, 86.9° (Epoch: 29 October)

Event Time Altitude Azimuth Distance (km) Brightness Sun altitude
Rises 00:14:28 0° 186° (S) 2,941 6.5 -11.3°
Reaches altitude 10° 00:16:37 10° 189° (S) 2,075 5.8 -11.8°
Maximum altitude 00:21:11 66° 272° (W) 768 3.8 -12.8°
Drops below altitude 10° 00:26:14 10° 354° (N) 2,287 6.1 -13.9°
Sets 00:28:42 0° 357° (N) 3,269 6.9 -14.4°
